Date String (YYYY-MM-DD hh:mm:ss) UTC,Instrument flags,absolute air pressure of the measurement (hPa),sample flow rate (lpm),inlet stack bypass flow (lpm),air temperature of the measurement (°C),ambient temperature measured by the external sensor (°C),aerosol sample conditioner tube jacket temperature (°C),OPC LED temperature (°C),internal box temperature (°C),relative humidity of the measurement (%),span deviation,mass concentration of particles derived from Lorenz-Mie calculation of OPC scattering (μg/m³),mass concentration of particles derived from Lorenz-Mie calculation of OPC scattering (μg/m³),mass concentration of particles derived from Lorenz-Mie calculation of OPC scattering (μg/m³)
DateTimeUTC,F1_M11,P_M11,Q1_M11,Q2_M11,T1_M11,T2_M11,T3_M11,T4_M11,T5_M11,U1_M11,ZSPAN_M11,X0_M11,X2_M11,X1_M11
2024-05-17 20:00:00,SystemResetWarning,0821.2,5.01,000.00,023.4,021.2,000.0,031.8,024.4,015.6,0000.0,0007.07,0004.01,0003.52
2024-05-17 20:01:00,SystemResetWarning,0821.1,5.02,000.00,023.2,021.0,000.0,031.8,024.3,016.2,0000.0,0006.81,0003.90,0003.41
2024-05-17 20:02:00,SystemResetWarning,0821.1,4.99,000.00,023.2,021.5,000.0,031.8,024.6,016.5,0000.0,0006.38,0003.81,0003.32
2024-05-17 20:03:00,SystemResetWarning,0821.1,5.00,000.00,023.3,021.9,000.0,031.7,024.8,016.0,0000.0,0006.42,0003.78,0003.29
2024-05-17 20:04:00,SystemResetWarning,0821.1,5.00,000.00,023.3,022.2,000.0,031.6,025.0,016.4,0000.0,0006.36,0003.77,0003.29
2024-05-17 20:05:00,SystemResetWarning,0821.1,5.01,000.00,023.4,022.6,000.0,031.6,025.1,017.0,0000.0,0006.50,0003.78,0003.29
2024-05-17 20:06:00,SystemResetWarning,0821.1,5.01,000.00,023.5,022.9,000.0,031.6,025.3,016.1,0000.0,0006.59,0003.79,0003.29
2024-05-17 20:07:00,SystemResetWarning,0821.2,5.00,000.00,023.6,023.1,000.0,031.6,025.5,015.3,0000.0,0006.80,0003.83,0003.30
2024-05-17 20:08:00,SystemResetWarning,0821.1,4.99,000.00,023.7,023.4,000.0,031.6,025.6,015.6,0000.0,0006.98,0003.85,0003.31
2024-05-17 20:09:00,SystemResetWarning,0821.1,4.99,000.00,023.8,023.1,000.0,031.7,025.4,016.0,0000.0,0007.08,0003.86,0003.32
2024-05-17 20:10:00,SystemResetWarning,0821.2,5.00,000.00,023.5,021.4,000.0,031.8,024.6,015.7,0000.0,0007.33,0003.82,0003.32
2024-05-17 20:11:00,SystemResetWarning,0821.1,5.01,000.00,023.3,021.0,000.0,031.8,024.3,015.7,0000.0,0007.33,0003.85,0003.34
2024-05-17 20:12:00,SystemResetWarning,0821.1,5.00,000.00,023.3,021.5,000.0,031.8,024.6,015.8,0000.0,0007.50,0003.87,0003.33
2024-05-17 20:13:00,SystemResetWarning,0821.2,4.98,000.00,023.3,021.8,000.0,031.7,024.8,015.7,0000.0,0008.29,0003.85,0003.30
2024-05-17 20:14:00,SystemResetWarning,0821.1,5.00,000.00,023.4,022.2,000.0,031.6,025.0,015.7,0000.0,0008.24,0003.82,0003.27
2024-05-17 20:15:00,SystemResetWarning,0821.1,5.01,000.00,023.4,022.5,000.0,031.6,025.1,016.0,0000.0,0008.21,0003.79,0003.23
2024-05-17 20:16:00,SystemResetWarning,0821.1,5.01,000.00,023.5,022.9,000.0,031.6,025.3,016.2,0000.0,0008.03,0003.72,0003.20
2024-05-17 20:17:00,SystemResetWarning,0821.4,5.00,000.00,023.6,023.1,000.0,031.6,025.5,015.6,0000.0,0008.22,0003.70,0003.18
2024-05-17 20:18:00,SystemResetWarning,0821.2,4.99,000.00,023.7,023.4,000.0,031.7,025.6,015.0,0000.0,0008.94,0003.67,0003.14
2024-05-17 20:19:00,SystemResetWarning,0821.2,4.99,000.00,023.7,022.5,000.0,031.8,025.1,015.0,0000.0,0008.81,0003.62,0003.11
2024-05-17 20:20:00,SystemResetWarning,0821.1,5.00,000.00,023.4,021.0,000.0,031.8,024.3,014.7,0000.0,0008.77,0003.60,0003.06
2024-05-17 20:21:00,SystemResetWarning,0821.1,5.01,000.00,023.2,021.2,000.0,031.8,024.4,015.8,0000.0,0008.41,0003.58,0003.02
2024-05-17 20:22:00,SystemResetWarning,0821.1,5.00,000.00,023.3,021.6,000.0,031.7,024.6,016.4,0000.0,0008.36,0003.53,0002.92
2024-05-17 20:23:00,SystemResetWarning,0821.0,4.99,000.00,023.3,022.0,000.0,031.7,024.9,015.8,0000.0,0008.31,0003.46,0002.87
2024-05-17 20:24:00,SystemResetWarning,0821.2,4.99,000.00,023.4,022.3,000.0,031.6,025.0,015.2,0000.0,0007.82,0003.45,0002.85
2024-05-17 20:25:00,SystemResetWarning,0821.1,5.00,000.00,023.5,022.7,000.0,031.6,025.2,015.2,0000.0,0007.82,0003.44,0002.84
2024-05-17 20:26:00,SystemResetWarning,0821.1,5.01,000.00,023.6,023.0,000.0,031.6,025.4,015.3,0000.0,0007.81,0003.43,0002.84
2024-05-17 20:27:00,SystemResetWarning,0821.3,5.01,000.00,023.7,023.2,000.0,031.6,025.5,015.6,0000.0,0007.92,0003.45,0002.84
2024-05-17 20:28:00,SystemResetWarning,0821.3,5.00,000.00,023.7,023.2,000.0,031.7,025.5,016.1,0000.0,0007.99,0003.44,0002.83
2024-05-17 20:29:00,SystemResetWarning,0821.1,4.98,000.00,023.6,021.7,000.0,031.8,024.7,015.8,0000.0,0007.67,0003.43,0002.83
2024-05-17 20:30:00,SystemResetWarning,0821.1,5.03,000.00,023.3,020.9,000.0,031.8,024.2,015.1,0000.0,0007.67,0003.42,0002.82
2024-05-17 20:31:00,SystemResetWarning,0821.0,4.99,000.00,023.2,021.4,000.0,031.8,024.5,016.0,0000.0,0007.78,0003.42,0002.79
2024-05-17 20:32:00,SystemResetWarning,0821.0,4.99,000.00,023.3,021.7,000.0,031.7,024.7,017.2,0000.0,0007.81,0003.39,0002.73
2024-05-17 20:33:00,SystemResetWarning,0820.9,5.02,000.00,023.3,022.1,000.0,031.6,024.9,015.6,0000.0,0007.73,0003.36,0002.71
2024-05-17 20:34:00,SystemResetWarning,0821.0,5.01,000.00,023.4,022.5,000.0,031.6,025.1,015.0,0000.0,0007.71,0003.36,0002.69
2024-05-17 20:35:00,SystemResetWarning,0821.1,4.99,000.00,023.5,022.8,000.0,031.6,025.3,015.1,0000.0,0007.41,0003.36,0002.67
2024-05-17 20:36:00,SystemResetWarning,0821.1,4.99,000.00,023.6,023.1,000.0,031.6,025.4,014.6,0000.0,0007.35,0003.35,0002.65
2024-05-17 20:37:00,SystemResetWarning,0821.0,5.00,000.00,023.7,023.2,000.0,031.7,025.4,015.3,0000.0,0007.44,0003.37,0002.62
2024-05-17 20:38:00,SystemResetWarning,0820.9,4.99,000.00,023.5,021.7,000.0,031.7,024.7,014.8,0000.0,0007.32,0003.35,0002.59
2024-05-17 20:39:00,SystemResetWarning,0820.9,5.01,000.00,023.2,020.7,000.0,031.8,024.2,014.6,0000.0,0006.98,0003.30,0002.55
2024-05-17 20:40:00,SystemResetWarning,0820.8,5.01,000.00,023.2,021.3,000.0,031.7,024.4,014.7,0000.0,0005.62,0003.26,0002.53
2024-05-17 20:41:00,SystemResetWarning,0821.0,4.99,000.00,023.2,021.7,000.0,031.6,024.7,014.9,0000.0,0005.55,0003.23,0002.50
2024-05-17 20:42:00,SystemResetWarning,0821.1,5.00,000.00,023.3,022.1,000.0,031.6,024.9,014.8,0000.0,0006.08,0003.27,0002.51
2024-05-17 20:43:00,SystemResetWarning,0820.8,5.00,000.00,023.4,022.4,000.0,031.5,025.0,015.2,0000.0,0006.36,0003.28,0002.50
2024-05-17 20:44:00,SystemResetWarning,0820.9,5.00,000.00,023.4,022.8,000.0,031.5,025.2,014.6,0000.0,0006.74,0003.27,0002.50
2024-05-17 20:45:00,SystemResetWarning,0820.8,5.00,000.00,023.5,023.0,000.0,031.6,025.4,014.5,0000.0,0006.74,0003.25,0002.48
2024-05-17 20:46:00,SystemResetWarning,0821.0,5.00,000.00,023.6,023.2,000.0,031.6,025.4,014.5,0000.0,0006.57,0003.21,0002.45
2024-05-17 20:47:00,SystemResetWarning,0821.1,4.99,000.00,023.5,021.8,000.0,031.7,024.7,014.3,0000.0,0006.52,0003.20,0002.44
2024-05-17 20:48:00,SystemResetWarning,0820.8,5.01,000.00,023.2,020.7,000.0,031.7,024.1,014.7,0000.0,0006.62,0003.22,0002.43
2024-05-17 20:49:00,SystemResetWarning,0820.9,5.02,000.00,023.1,021.2,000.0,031.7,024.3,014.8,0000.0,0006.73,0003.19,0002.40
2024-05-17 20:50:00,SystemResetWarning,0820.9,4.99,000.00,023.2,021.6,000.0,031.6,024.6,014.8,0000.0,0006.75,0003.19,0002.39
2024-05-17 20:51:00,SystemResetWarning,0821.3,5.00,000.00,023.2,022.0,000.0,031.5,024.8,014.3,0000.0,0006.72,0003.18,0002.39
2024-05-17 20:52:00,SystemResetWarning,0821.0,4.99,000.00,023.3,022.3,000.0,031.5,025.0,014.6,0000.0,0006.85,0003.20,0002.38
2024-05-17 20:53:00,SystemResetWarning,0821.0,5.00,000.00,023.4,022.6,000.0,031.5,025.2,014.2,0000.0,0006.12,0003.16,0002.36
2024-05-17 20:54:00,SystemResetWarning,0820.9,5.01,000.00,023.5,022.9,000.0,031.5,025.3,014.9,0000.0,0006.48,0003.17,0002.36
2024-05-17 20:55:00,SystemResetWarning,0821.0,4.99,000.00,023.6,023.2,000.0,031.5,025.5,015.1,0000.0,0006.07,0003.18,0002.36
2024-05-17 20:56:00,SystemResetWarning,0821.0,4.99,000.00,023.6,022.9,000.0,031.6,025.3,015.7,0000.0,0006.40,0003.18,0002.35
2024-05-17 20:57:00,SystemResetWarning,0820.8,5.00,000.00,023.4,021.2,000.0,031.7,024.4,015.6,0000.0,0006.70,0003.21,0002.36
2024-05-17 20:58:00,SystemResetWarning,0820.8,5.01,000.00,023.2,020.9,000.0,031.7,024.2,015.6,0000.0,0006.74,0003.21,0002.34
2024-05-17 20:59:00,SystemResetWarning,0820.8,5.00,000.00,023.2,021.5,000.0,031.6,024.5,015.1,0000.0,0006.55,0003.16,0002.31
